Regional Weather Roundup
Issued by NWS Charleston, SC

Current Version | Previous Version | Graphics & Text | Print | Product List | Glossary On
Versions: 1 2 3 4 5 6 7 8 9 10 11 12 13 14 15 16 17 18 19 20 21 22 23 24 25 26 27 28 29 30 31 32 33 34 35 36 37 38 39 40 41 42 43 44 45 46 47 48 49 50
000
ASUS42 KCHS 281625
RWRCHS

REGIONAL WEATHER ROUNDUP
NATIONAL WEATHER SERVICE CHARLESTON SC
1100 AM EST FRI NOV 28 2014

NOTE: "FAIR" INDICATES FEW OR NO CLOUDS BELOW 12,000 FEET WITH NO
SIGNIFICANT WEATHER AND/OR OBSTRUCTIONS TO VISIBILITY.

NOT ALL STATIONS ARE QUALITY CONTROLLED BY THE NATIONAL
WEATHER SERVICE. USE DATA WITH CAUTION...ESPECIALLY
DEWPOINT OBSERVATIONS.

SCZ027-030-031-034>040-042>050-281700-
...SOUTHEAST SOUTH CAROLINA...

CITY           SKY/WX    TMP DP  RH WIND       PRES   REMARKS
N CHARLESTON   SUNNY     46  21  37 N12G20    30.40S
WATERFRONT PRK   N/A     43 N/A N/A N13G20      N/A
MOUNT PLEASANT FAIR      45  23  42 N9        30.39F
JOHNS ISLAND   SUNNY     46  28  49 N10       30.40F
PINOPOLIS        N/A     41  25  52 N12       30.35R
MONCKS CORNER  FAIR      45  28  53 N9        30.40F
SUMMERVILLE    FAIR      45  27  49 N8        30.40F
BEAUFORT MCAS  SUNNY     46  25  43 NE10      30.42R
BEAUFORT ARPT  FAIR      45  30  57 N7        30.41F
HILTON HEAD IS SUNNY     46  28  49 N13       30.42R
WALTERBORO     SUNNY     45  21  39 N8        30.41F
ALLENDALE      FAIR      45  23  42 VRB5      30.41S

...SOUTHERN MIDLANDS AND PEE DEE...

CITY           SKY/WX    TMP DP  RH WIND       PRES   REMARKS
GEORGETOWN     NOT AVBL
KINGSTREE      NOT AVBL
ORANGEBURG     SUNNY     43  21  41 NE8       30.40F
BARNWELL       FAIR      43  25  49 N7        30.43S
AIKEN          FAIR      41  23  48 CALM      30.43F
MANNING        NOT AVBL
COLUMBIA       SUNNY     42  21  43 CALM      30.42S
SUMTER         SUNNY     42  20  42 E7        30.39F
FLORENCE       SUNNY     43  21  41 N12       30.39F
MYRTLE BEACH   SUNNY     45  21  39 N17       30.39R
N MYRTLE BEACH SUNNY     44  22  41 N14       30.37S

$$

GAZ063-065-086>088-099>101-113>116-118-119-134>141-150-281700-
...SOUTHEAST GEORGIA...

CITY           SKY/WX    TMP DP  RH WIND       PRES   REMARKS
SAVANNAH ARPT  SUNNY     48  25  40 N9        30.42S
HUNTER AAF     SUNNY     46  27  48 NE8       30.40S
FORT STEWART   SUNNY     45  28  50 N6        30.40S
STATESBORO     NOT AVBL
SYLVANIA       SUNNY     46  31  55 N8        30.42S
CLAXTON        NOT AVBL

...CSRA...CENTRAL AND FAR SOUTHEAST GEORGIA...

CITY           SKY/WX    TMP DP  RH WIND       PRES   REMARKS
THOMSON        SUNNY     44  30  57 CALM      30.45F
AUGUSTA-BUSH   SUNNY     43  22  43 NW5       30.42F
AUGUSTA-DANIEL SUNNY     42  20  41 VRB3      30.41F
SWAINSBORO     FAIR      45  30  57 E6        30.41F
VIDALIA        SUNNY     45  32  61 N6        30.40F
HAZLEHURST     FAIR      46  31  56 E5        30.40F
ALMA           SUNNY     45  28  51 NE5       30.41S
WAYCROSS       SUNNY     49  32  51 E7        30.40F
JESUP          FAIR      50  32  50 E9        30.41F
BAXLEY         FAIR      46  30  53 NE5       30.40F
BRUNSWICK      SUNNY     48  32  53 N9        30.41F
SAINT SIMONS   SUNNY     47  33  58 NE14      30.41R

$$

SCZ027-028-034-036>038-045-046-048>050-GAZ119-141-281700-
...LAKE AND SUPPLEMENTAL COASTAL OBSERVATIONS...

STATION/POSITION TIME  TEMP    WIND        PRES    WAVE   SWELL
                       AIR SEA DIR/SP/G            HT/PER HT/PER/DIR
                 (UTC) (F)     (DEG/KT/KT) (MB)    (FT/S) (FT/S/D)
UPR LAKE MARION  NOT AVBL
WINYAH BAY       1600   42      20/ 11     1029.0S
LAKE MURRAY      1600   39      60/  2/  6 1029.1F
ACE BASIN NERRS  1600   45      20/  4     1029.0F
FORT PULASKI     1600   43     360/ 10/ 13 1030.0F
SAPELO ISLAND    1600   48      10/  9     1029.0F

$$

ANZ835-935-AMZ111-154-330-350-352-354-370-450-454-472-281700-
...C-MAN AND BUOY OBSERVATIONS...

STATION/POSITION TIME  TEMP    WIND        PRES    WAVE   SWELL
                       AIR SEA DIR/SP/G            HT/PER HT/PER/DIR
                 (UTC) (F)     (DEG/KT/KT) (MB)    (FT/S) (FT/S/D)
BUOY 41004       1600   47 72   10/ 17/ 23 1027.4R   6/ 6   2/14
BUOY 41008       1600   47 63   30/ 16/ 21 1028.8R   5/ 6   2/140/ 9
FOLLY BEACH CMAN 1600   43      10/  9/ 13 1029.8R
CAPERS NEARSHORE 1500   42      30/ 19/ 23   N/A
FRIPP NEARSHORE  NOT AVBL


STATION/POSITION TIME  TEMP    WIND        PRES    WAVE   SWELL
                       AIR SEA DIR/SP/G            HT/PER HT/PER/DIR
                 (UTC) (F)     (DEG/KT/KT) (MB)    (FT/S) (FT/S/D)
5E ST. MARYS GA  1600      61                N/A     4/ 6
FRYING PAN BUOY  1600   44 68   20/ 17/ 23 1027.3R   6/ 6   2/ 70/ 9
BUOY 41025       NOT AVBL
CAPE LOOKOUT NC  1600   42      10/ 18/ 22 1026.7S
BUOY 41002       1529   57 72  340/ 21/ 27 1022.7F  11/ 9   2/190/14
BUOY 41010       1600   65 77  360/ 14/ 19 1023.5F   7/ 8   5/350/ 8
ST AUGUSTINE FL  1600   51     360/ 19/ 23 1028.5R


$$


USA.gov is the U.S. government's official web portal to all federal, state and local government web resources and services.